#ZEITBEREICH: 30.04.2023 bis 30.04.2024
Datum;Zeit;SHW2 NO AM1H [�g/m�];SHW2 NO2 AM1H [�g/m�];SHW2 O3 AM1H [�g/m�];SHW2 PM10F GM24H [�g/m�];SHW2 WG SM1H [m/s];SHW2 WR VM1H [�]
30.04.2023;01:00;;;41;18;1,2;20
30.04.2023;02:00;<7;14;32;18;1,3;27
30.04.2023;03:00;<7;17;17;18;0,3;
30.04.2023;04:00;<7;14;13;18;0,9;60
30.04.2023;05:00;<7;10;15;17;1,4;71
30.04.2023;06:00;<7;<10;21;17;1,5;58
30.04.2023;07:00;<7;<10;23;17;1,7;59
30.04.2023;08:00;<7;<10;40;17;2,5;68
30.04.2023;09:00;<7;<10;51;17;2,6;68
30.04.2023;10:00;<7;<10;69;16;3,0;72
30.04.2023;11:00;<7;<10;74;16;3,6;41
30.04.2023;12:00;<7;<10;82;15;4,2;40
30.04.2023;13:00;<7;<10;84;14;4,6;46
30.04.2023;14:00;<7;<10;86;13;4,2;41
30.04.2023;15:00;<7;<10;86;13;4,7;49
30.04.2023;16:00;<7;<10;88;12;4,6;44
30.04.2023;17:00;<7;<10;88;12;4,7;49
30.04.2023;18:00;<7;<10;89;11;4,7;42
30.04.2023;19:00;<7;<10;86;11;3,5;49
30.04.2023;20:00;<7;<10;79;<10;2,7;42
30.04.2023;21:00;<7;<10;75;<10;2,3;52
30.04.2023;22:00;<7;<10;66;<10;1,6;47
30.04.2023;23:00;<7;<10;51;<10;1,4;38
30.04.2023;24:00;<7;16;32;<10;0,7;
01.05.2023;01:00;<7;13;;<10;0,7;51
01.05.2023;02:00;;;27;<10;1,2;29
01.05.2023;03:00;<7;13;21;<10;0,5;
01.05.2023;04:00;<7;14;8;<10;0,0;
01.05.2023;05:00;<7;16;4;<10;0,0;
01.05.2023;06:00;<7;14;<4;<10;0,0;
01.05.2023;07:00;<7;10;5;<10;0,1;
01.05.2023;08:00;9;13;14;<10;0,3;
01.05.2023;09:00;<7;10;31;<10;0,3;
01.05.2023;10:00;<7;10;49;<10;1,0;185
01.05.2023;11:00;<7;<10;63;<10;1,4;206
01.05.2023;12:00;<7;<10;86;<10;1,4;222
01.05.2023;13:00;<7;<10;82;<10;2,4;307
01.05.2023;14:00;<7;<10;83;<10;1,3;89
01.05.2023;15:00;<7;<10;87;<10;1,4;110
01.05.2023;16:00;<7;<10;90;<10;1,5;177
01.05.2023;17:00;<7;<10;90;<10;2,4;224
01.05.2023;18:00;<7;10;87;<10;5,6;310
01.05.2023;19:00;<7;11;85;<10;2,3;268
01.05.2023;20:00;<7;16;74;<10;1,8;260
01.05.2023;21:00;<7;22;61;<10;1,9;276
01.05.2023;22:00;<7;21;60;<10;1,7;235
01.05.2023;23:00;<7;31;41;<10;1,6;234
01.05.2023;24:00;<7;22;48;<10;2,4;279
02.05.2023;01:00;<7;15;56;<10;2,1;273
02.05.2023;02:00;<7;<10;;<10;2,0;279
02.05.2023;03:00;;;66;<10;2,4;299
02.05.2023;04:00;<7;<10;65;<10;3,3;292
02.05.2023;05:00;<7;<10;65;<10;2,9;291
02.05.2023;06:00;<7;14;59;10;2,3;276
02.05.2023;07:00;<7;16;53;10;2,6;274
02.05.2023;08:00;<7;12;55;10;3,7;312
02.05.2023;09:00;<7;14;55;10;3,5;312
02.05.2023;10:00;<7;<10;64;10;4,0;338
02.05.2023;11:00;<7;<10;74;10;3,3;353
02.05.2023;12:00;<7;<10;75;10;2,7;329
02.05.2023;13:00;<7;<10;74;10;2,8;351
02.05.2023;14:00;<7;<10;78;11;2,3;329
02.05.2023;15:00;<7;<10;84;11;2,9;333
02.05.2023;16:00;<7;<10;92;11;3,5;356
02.05.2023;17:00;<7;<10;94;12;3,8;17
02.05.2023;18:00;<7;<10;98;12;3,6;21
02.05.2023;19:00;<7;<10;100;12;2,7;19
02.05.2023;20:00;<7;<10;95;13;2,6;8
02.05.2023;21:00;<7;13;76;13;2,4;13
02.05.2023;22:00;<7;18;57;13;1,5;45
02.05.2023;23:00;<7;12;47;13;1,1;48
02.05.2023;24:00;<7;16;30;13;0,2;
03.05.2023;01:00;<7;14;23;13;0,3;
03.05.2023;02:00;<7;18;16;13;0,5;
03.05.2023;03:00;<7;13;;12;0,6;
03.05.2023;04:00;;;4;11;0,1;
03.05.2023;05:00;12;19;<4;11;0,2;
03.05.2023;06:00;29;24;<4;10;1,3;54
03.05.2023;07:00;15;22;10;11;1,2;45
03.05.2023;08:00;13;21;24;12;1,7;64
03.05.2023;09:00;<7;<10;52;12;2,7;73
03.05.2023;10:00;<7;<10;69;12;3,2;69
03.05.2023;11:00;<7;<10;70;13;3,5;46
03.05.2023;12:00;<7;<10;75;13;4,1;45
03.05.2023;13:00;<7;<10;77;13;3,8;47
03.05.2023;14:00;<7;<10;82;13;3,9;37
03.05.2023;15:00;<7;<10;85;14;4,1;42
03.05.2023;16:00;<7;<10;88;14;4,3;46
03.05.2023;17:00;<7;<10;91;14;4,8;44
03.05.2023;18:00;<7;<10;89;14;4,3;48
03.05.2023;19:00;<7;<10;90;14;3,9;48
03.05.2023;20:00;<7;<10;84;14;2,4;43
03.05.2023;21:00;<7;10;73;14;1,9;43
03.05.2023;22:00;<7;11;67;14;1,9;45
03.05.2023;23:00;<7;<10;61;14;1,7;40
03.05.2023;24:00;<7;11;47;14;1,2;40
04.05.2023;01:00;<7;15;43;14;1,6;56
04.05.2023;02:00;<7;<10;42;15;1,3;43
04.05.2023;03:00;<7;13;23;15;0,5;
04.05.2023;04:00;<7;17;;16;0,9;45
04.05.2023;05:00;;;16;16;1,3;40
04.05.2023;06:00;9;26;20;17;1,5;40
04.05.2023;07:00;27;32;11;17;1,1;51
04.05.2023;08:00;12;30;29;17;1,6;56
04.05.2023;09:00;8;23;40;18;1,5;69
04.05.2023;10:00;<7;12;69;18;2,1;124
04.05.2023;11:00;<7;<10;90;18;3,4;133
04.05.2023;12:00;<7;<10;93;18;2,9;108
04.05.2023;13:00;<7;<10;95;17;3,5;74
04.05.2023;14:00;<7;<10;99;17;3,4;81
04.05.2023;15:00;<7;<10;100;17;3,7;55
04.05.2023;16:00;<7;<10;97;18;4,1;49
04.05.2023;17:00;<7;<10;97;18;3,5;48
04.05.2023;18:00;<7;<10;108;18;2,5;169
04.05.2023;19:00;<7;<10;108;17;2,8;158
04.05.2023;20:00;<7;<10;105;17;2,1;143
04.05.2023;21:00;<7;<10;101;17;2,4;125
04.05.2023;22:00;<7;13;84;17;1,9;90
04.05.2023;23:00;<7;14;61;17;1,5;74
04.05.2023;24:00;<7;15;47;17;1,2;170
05.05.2023;01:00;<7;17;52;17;1,4;252
05.05.2023;02:00;<7;12;45;18;0,5;
05.05.2023;03:00;<7;17;33;18;1,4;253
05.05.2023;04:00;<7;19;47;17;1,8;232
05.05.2023;05:00;<7;35;;17;2,1;232
05.05.2023;06:00;;;23;16;1,7;222
05.05.2023;07:00;11;58;22;16;2,0;222
05.05.2023;08:00;<7;35;52;16;2,5;246
05.05.2023;09:00;<7;18;77;16;2,6;255
05.05.2023;10:00;<7;18;79;16;3,8;286
05.05.2023;11:00;<7;15;87;16;2,6;272
05.05.2023;12:00;<7;11;94;16;2,6;298
05.05.2023;13:00;<7;<10;101;16;3,3;289
05.05.2023;14:00;<7;11;96;16;3,4;258
05.05.2023;15:00;<7;14;79;16;3,4;227
05.05.2023;16:00;<7;14;73;15;1,8;208
05.05.2023;17:00;<7;17;63;15;1,8;209
05.05.2023;18:00;<7;12;73;15;3,3;296
05.05.2023;19:00;<7;14;64;14;1,3;88
05.05.2023;20:00;<7;14;55;14;1,0;88
05.05.2023;21:00;<7;15;46;14;0,4;
05.05.2023;22:00;<7;17;24;14;0,2;
05.05.2023;23:00;<7;17;19;14;0,7;
05.05.2023;24:00;<7;22;20;13;0,6;
06.05.2023;01:00;<7;25;25;13;1,5;221
06.05.2023;02:00;<7;22;21;13;1,5;209
06.05.2023;03:00;<7;23;14;13;0,9;216
06.05.2023;04:00;<7;22;12;12;0,7;118
06.05.2023;05:00;<7;15;15;12;1,0;78
06.05.2023;06:00;<7;14;;11;1,1;67
06.05.2023;07:00;;;13;10;1,0;59
06.05.2023;08:00;<7;12;17;<10;0,7;85
06.05.2023;09:00;<7;<10;28;<10;0,7;
06.05.2023;10:00;<7;<10;60;<10;1,2;176
06.05.2023;11:00;<7;<10;75;<10;1,4;145
06.05.2023;12:00;<7;<10;80;<10;1,8;111
06.05.2023;13:00;<7;<10;87;<10;1,7;99
06.05.2023;14:00;<7;<10;92;<10;2,4;30
06.05.2023;15:00;<7;<10;95;<10;2,4;41
06.05.2023;16:00;<7;<10;95;<10;3,2;50
06.05.2023;17:00;<7;<10;94;<10;3,2;50
06.05.2023;18:00;<7;<10;82;<10;2,5;210
06.05.2023;19:00;<7;<10;67;<10;1,3;59
06.05.2023;20:00;<7;10;61;<10;1,5;38
06.05.2023;21:00;<7;<10;47;<10;1,6;74
06.05.2023;22:00;<7;<10;42;<10;1,3;75
06.05.2023;23:00;<7;<10;38;<10;1,3;58
06.05.2023;24:00;<7;11;31;<10;1,1;53
07.05.2023;01:00;<7;<10;27;<10;0,9;51
07.05.2023;02:00;<7;<10;23;<10;1,2;58
07.05.2023;03:00;<7;<10;22;<10;1,2;56
07.05.2023;04:00;<7;<10;20;<10;1,4;56
07.05.2023;05:00;<7;12;11;<10;1,4;49
07.05.2023;06:00;<7;13;15;<10;1,6;57
07.05.2023;07:00;<7;<10;;<10;1,6;63
07.05.2023;08:00;;;28;<10;2,1;68
07.05.2023;09:00;<7;<10;38;<10;2,2;63
07.05.2023;10:00;<7;<10;47;<10;2,2;60
07.05.2023;11:00;<7;<10;52;<10;2,5;53
07.05.2023;12:00;<7;<10;59;<10;3,7;43
07.05.2023;13:00;<7;<10;62;<10;4,0;48
07.05.2023;14:00;<7;<10;64;<10;4,0;53
07.05.2023;15:00;<7;<10;68;<10;3,6;78
07.05.2023;16:00;<7;<10;65;<10;2,8;107
07.05.2023;17:00;<7;<10;53;<10;1,9;65
07.05.2023;18:00;<7;<10;48;<10;2,3;66
07.05.2023;19:00;<7;<10;47;<10;2,2;53
07.05.2023;20:00;<7;<10;44;<10;1,7;34
07.05.2023;21:00;<7;<10;38;<10;1,9;35
07.05.2023;22:00;<7;10;31;<10;1,5;43
07.05.2023;23:00;<7;<10;27;<10;1,4;42
07.05.2023;24:00;<7;<10;22;<10;1,0;45
08.05.2023;01:00;<7;11;18;10;1,3;33
08.05.2023;02:00;<7;18;8;11;0,9;31
08.05.2023;03:00;<7;18;4;11;0,8;44
08.05.2023;04:00;<7;19;<4;11;0,5;
08.05.2023;05:00;<7;17;<4;11;0,2;
08.05.2023;06:00;21;15;<4;12;0,5;
08.05.2023;07:00;18;17;<4;12;0,7;67
08.05.2023;08:00;<7;12;20;12;1,0;156
08.05.2023;09:00;;;26;12;1,4;144
08.05.2023;10:00;18;12;43;13;1,5;191
08.05.2023;11:00;<7;15;41;13;2,0;211
08.05.2023;12:00;<7;13;42;13;2,3;198
08.05.2023;13:00;<7;12;47;12;1,9;194
08.05.2023;14:00;<7;<10;52;12;1,3;171
08.05.2023;15:00;<7;<10;60;12;1,9;145
08.05.2023;16:00;<7;<10;58;12;1,7;144
08.05.2023;17:00;<7;<10;57;12;1,6;118
08.05.2023;18:00;<7;<10;59;13;2,0;98
08.05.2023;19:00;<7;10;48;13;2,1;84
08.05.2023;20:00;<7;12;40;13;1,4;105
08.05.2023;21:00;<7;20;27;13;0,9;164
08.05.2023;22:00;<7;27;9;13;0,4;
08.05.2023;23:00;<7;16;;13;1,2;101
08.05.2023;24:00;<7;19;16;13;0,7;93
09.05.2023;01:00;<7;<10;16;13;1,0;140
09.05.2023;02:00;<7;12;16;13;1,1;73
09.05.2023;03:00;<7;11;22;13;1,4;121
09.05.2023;04:00;<7;<10;25;13;0,8;147
09.05.2023;05:00;8;21;12;13;0,9;40
09.05.2023;06:00;10;27;6;13;0,6;
09.05.2023;07:00;;;;14;0,5;
09.05.2023;08:00;<7;26;14;14;1,0;
09.05.2023;09:00;<7;<10;38;14;3,0;188
09.05.2023;10:00;<7;<10;46;15;3,6;192
09.05.2023;11:00;<7;<10;47;15;3,3;183
09.05.2023;12:00;<7;<10;59;15;3,7;176
09.05.2023;13:00;<7;<10;65;15;3,6;195
09.05.2023;14:00;<7;<10;68;15;3,9;180
09.05.2023;15:00;<7;<10;66;15;3,7;185
09.05.2023;16:00;<7;<10;59;15;1,9;109
09.05.2023;17:00;<7;<10;59;15;0,8;
09.05.2023;18:00;<7;15;45;15;1,8;275
09.05.2023;19:00;<7;20;36;15;1,1;188
09.05.2023;20:00;<7;16;32;15;1,1;113
09.05.2023;21:00;<7;12;32;14;1,7;102
09.05.2023;22:00;<7;<10;39;14;1,1;223
09.05.2023;23:00;<7;<10;41;14;1,1;273
09.05.2023;24:00;<7;11;39;13;2,1;255
10.05.2023;01:00;<7;<10;41;13;2,2;240
10.05.2023;02:00;<7;14;30;12;2,4;241
10.05.2023;03:00;<7;11;36;12;2,2;243
10.05.2023;04:00;<7;13;37;11;2,5;269
10.05.2023;05:00;<7;<10;62;11;2,5;285
10.05.2023;06:00;<7;25;40;10;1,7;233
10.05.2023;07:00;<7;30;30;<10;1,8;217
10.05.2023;08:00;;;27;<10;2,1;230
10.05.2023;09:00;<7;15;44;<10;2,9;260
10.05.2023;10:00;<7;<10;52;<10;3,9;250
10.05.2023;11:00;<7;<10;53;<10;3,8;254
10.05.2023;12:00;<7;<10;59;<10;3,9;254
10.05.2023;13:00;<7;11;57;<10;4,6;258
10.05.2023;14:00;<7;11;65;<10;4,2;255
10.05.2023;15:00;<7;<10;67;<10;3,6;260
10.05.2023;16:00;<7;<10;71;<10;3,1;264
10.05.2023;17:00;<7;<10;79;<10;2,6;247
10.05.2023;18:00;<7;<10;80;<10;2,8;243
10.05.2023;19:00;<7;11;77;<10;2,9;262
10.05.2023;20:00;<7;16;63;<10;3,6;275
10.05.2023;21:00;<7;18;52;<10;0,6;
10.05.2023;22:00;<7;18;40;<10;1,1;178
10.05.2023;23:00;<7;20;;10;1,3;218
10.05.2023;24:00;<7;22;29;10;0,6;
11.05.2023;01:00;<7;23;21;11;1,2;202
11.05.2023;02:00;<7;20;18;11;1,1;210
11.05.2023;03:00;<7;20;15;12;1,1;215
11.05.2023;04:00;<7;22;13;12;1,1;220
11.05.2023;05:00;<7;19;12;12;1,4;203
11.05.2023;06:00;<7;25;12;13;1,2;214
11.05.2023;07:00;<7;27;16;13;1,0;243
11.05.2023;08:00;<7;24;29;13;1,7;257
11.05.2023;09:00;;;42;14;2,0;245
11.05.2023;10:00;<7;16;48;14;1,6;206
11.05.2023;11:00;<7;10;63;14;1,9;168
11.05.2023;12:00;10;21;56;15;2,4;291
11.05.2023;13:00;8;20;59;15;2,6;294
11.05.2023;14:00;<7;14;69;15;2,6;309
11.05.2023;15:00;<7;17;61;15;2,2;11
11.05.2023;16:00;<7;17;53;15;1,9;58
11.05.2023;17:00;<7;<10;58;15;1,1;111
11.05.2023;18:00;<7;<10;68;15;1,0;20
11.05.2023;19:00;<7;12;61;14;1,0;316
11.05.2023;20:00;<7;18;51;14;0,8;336
11.05.2023;21:00;<7;21;42;14;0,9;290
11.05.2023;22:00;<7;20;37;14;0,9;
11.05.2023;23:00;<7;<10;49;13;2,3;336
11.05.2023;24:00;<7;<10;;13;2,8;341
12.05.2023;01:00;<7;<10;37;13;3,5;57
12.05.2023;02:00;<7;<10;36;13;2,8;82
12.05.2023;03:00;<7;<10;36;12;2,6;80
12.05.2023;04:00;<7;11;28;12;1,8;60
12.05.2023;05:00;<7;15;28;12;2,1;68
12.05.2023;06:00;<7;16;24;12;2,2;74
12.05.2023;07:00;<7;21;20;11;2,0;65
12.05.2023;08:00;<7;21;27;11;2,8;63
12.05.2023;09:00;<7;19;30;10;2,7;60
12.05.2023;10:00;;;41;10;2,9;63
12.05.2023;11:00;<7;<10;53;<10;2,9;54
12.05.2023;12:00;<7;<10;58;<10;3,7;38
12.05.2023;13:00;<7;<10;76;<10;4,5;39
12.05.2023;14:00;<7;<10;85;<10;4,4;44
12.05.2023;15:00;<7;<10;88;<10;2,4;51
12.05.2023;16:00;<7;<10;94;<10;2,4;151
12.05.2023;17:00;<7;12;79;<10;1,4;229
12.05.2023;18:00;<7;13;73;<10;2,0;58
12.05.2023;19:00;<7;<10;90;<10;2,5;48
12.05.2023;20:00;<7;13;81;10;1,8;30
12.05.2023;21:00;<7;19;31;11;1,1;238
12.05.2023;22:00;<7;17;15;11;1,3;220
12.05.2023;23:00;<7;26;7;11;1,4;251
12.05.2023;24:00;10;27;<4;12;1,0;255
13.05.2023;01:00;<7;20;;12;0,4;
13.05.2023;02:00;<7;15;<4;13;0,4;
13.05.2023;03:00;<7;14;<4;13;0,5;
13.05.2023;04:00;<7;15;<4;13;0,2;
13.05.2023;05:00;<7;14;<4;13;0,5;
13.05.2023;06:00;<7;14;<4;13;0,5;
13.05.2023;07:00;<7;11;5;13;1,2;52
13.05.2023;08:00;12;11;7;13;1,0;110
13.05.2023;09:00;11;13;17;14;1,2;161
13.05.2023;10:00;<7;13;45;14;1,9;71
13.05.2023;11:00;;;83;15;3,3;46
13.05.2023;12:00;<7;10;94;15;4,6;50
13.05.2023;13:00;<7;<10;109;15;4,6;51
13.05.2023;14:00;<7;<10;113;15;4,4;68
13.05.2023;15:00;<7;<10;112;16;4,1;71
13.05.2023;16:00;<7;<10;110;16;2,5;40
13.05.2023;17:00;<7;<10;105;16;2,0;147
13.05.2023;18:00;<7;<10;99;16;3,5;129
13.05.2023;19:00;<7;<10;103;15;1,1;123
13.05.2023;20:00;<7;10;82;15;0,2;
13.05.2023;21:00;<7;34;31;15;0,2;
13.05.2023;22:00;<7;41;15;15;0,0;
13.05.2023;23:00;<7;32;11;15;0,5;
13.05.2023;24:00;<7;24;10;15;0,4;
14.05.2023;01:00;<7;17;6;15;0,5;
14.05.2023;02:00;<7;13;;15;0,8;
14.05.2023;03:00;<7;13;5;15;0,7;
14.05.2023;04:00;<7;<10;4;15;0,6;
14.05.2023;05:00;<7;<10;<4;15;0,3;
14.05.2023;06:00;<7;<10;<4;16;0,1;
14.05.2023;07:00;<7;<10;10;16;0,5;
14.05.2023;08:00;<7;<10;12;16;0,8;
14.05.2023;09:00;<7;<10;35;16;1,6;73
14.05.2023;10:00;<7;<10;65;15;2,3;80
14.05.2023;11:00;<7;<10;78;15;2,6;49
14.05.2023;12:00;;;84;14;2,6;45
14.05.2023;13:00;<7;<10;88;14;3,7;44
14.05.2023;14:00;<7;<10;88;13;3,6;43
14.05.2023;15:00;<7;<10;90;13;3,8;55
14.05.2023;16:00;<7;<10;92;12;3,9;48
14.05.2023;17:00;<7;<10;91;12;3,7;53
14.05.2023;18:00;<7;<10;89;12;3,4;51
14.05.2023;19:00;<7;<10;85;11;3,0;57
14.05.2023;20:00;<7;<10;80;11;1,5;44
14.05.2023;21:00;<7;14;57;11;0,8;57
14.05.2023;22:00;<7;25;30;11;0,0;
14.05.2023;23:00;<7;24;20;10;0,3;
14.05.2023;24:00;<7;18;21;10;0,7;205
15.05.2023;01:00;<7;11;20;<10;1,0;222
15.05.2023;02:00;<7;11;19;<10;0,9;191
15.05.2023;03:00;<7;11;;<10;0,4;
15.05.2023;04:00;<7;12;5;<10;0,8;203
15.05.2023;05:00;<7;16;4;<10;0,7;
15.05.2023;06:00;11;23;<4;<10;1,5;202
15.05.2023;07:00;17;32;4;<10;1,7;203
15.05.2023;08:00;13;25;25;<10;2,5;257
15.05.2023;09:00;<7;17;42;11;2,6;251
15.05.2023;10:00;7;25;39;12;3,6;282
15.05.2023;11:00;7;23;50;14;3,2;280
15.05.2023;12:00;<7;17;68;15;3,6;281
15.05.2023;13:00;;;88;16;3,4;285
15.05.2023;14:00;<7;<10;110;16;4,5;294
15.05.2023;15:00;<7;<10;118;17;4,3;304
15.05.2023;16:00;<7;<10;116;17;4,4;304
15.05.2023;17:00;<7;<10;105;18;4,9;311
15.05.2023;18:00;<7;<10;101;18;4,7;300
15.05.2023;19:00;<7;<10;90;19;4,6;308
15.05.2023;20:00;<7;<10;82;19;4,0;305
15.05.2023;21:00;<7;<10;74;19;3,3;327
15.05.2023;22:00;<7;<10;72;19;3,8;301
15.05.2023;23:00;<7;<10;67;19;3,1;306
15.05.2023;24:00;<7;<10;67;19;3,2;302
16.05.2023;01:00;<7;<10;64;19;3,3;330
16.05.2023;02:00;<7;<10;64;19;3,5;337
16.05.2023;03:00;<7;<10;61;19;2,6;328
16.05.2023;04:00;<7;<10;;19;4,4;335
16.05.2023;05:00;<7;<10;64;19;3,1;328
16.05.2023;06:00;<7;<10;58;19;3,6;329
16.05.2023;07:00;<7;<10;53;18;3,6;329
16.05.2023;08:00;<7;<10;57;17;3,7;333
16.05.2023;09:00;<7;11;57;16;3,6;313
16.05.2023;10:00;<7;<10;67;15;4,2;323
16.05.2023;11:00;<7;<10;72;13;4,2;333
16.05.2023;12:00;<7;<10;73;12;3,7;323
16.05.2023;13:00;<7;<10;76;12;3,4;354
16.05.2023;14:00;;;71;11;3,4;306
16.05.2023;15:00;<7;<10;73;10;4,2;291
16.05.2023;16:00;<7;<10;77;<10;4,0;328
16.05.2023;17:00;<7;<10;77;<10;4,0;319
16.05.2023;18:00;<7;<10;73;<10;4,1;315
16.05.2023;19:00;<7;<10;71;<10;3,7;320
16.05.2023;20:00;<7;10;65;<10;2,5;313
16.05.2023;21:00;<7;<10;66;<10;2,9;325
16.05.2023;22:00;<7;<10;69;<10;2,3;324
16.05.2023;23:00;<7;<10;61;<10;1,7;325
16.05.2023;24:00;<7;18;40;<10;1,7;307
17.05.2023;01:00;<7;13;37;<10;1,5;292
17.05.2023;02:00;<7;13;33;<10;1,2;259
17.05.2023;03:00;<7;12;28;<10;1,5;237
17.05.2023;04:00;<7;13;24;<10;1,4;211
17.05.2023;05:00;<7;23;;<10;1,3;203
17.05.2023;06:00;<7;23;23;<10;1,5;288
17.05.2023;07:00;<7;18;40;<10;2,3;317
17.05.2023;08:00;<7;<10;61;<10;3,5;335
17.05.2023;09:00;<7;<10;68;<10;3,4;359
17.05.2023;10:00;<7;<10;70;<10;3,8;339
17.05.2023;11:00;<7;<10;67;<10;3,4;346
17.05.2023;12:00;<7;<10;71;<10;3,7;358
17.05.2023;13:00;<7;<10;71;<10;3,5;348
17.05.2023;14:00;<7;<10;75;<10;3,8;21
17.05.2023;15:00;;;78;<10;4,1;9
17.05.2023;16:00;<7;<10;85;<10;4,0;359
17.05.2023;17:00;<7;<10;85;<10;3,9;31
17.05.2023;18:00;<7;<10;86;<10;3,7;14
17.05.2023;19:00;<7;<10;87;<10;3,0;17
17.05.2023;20:00;<7;<10;80;<10;2,5;28
17.05.2023;21:00;<7;17;67;<10;2,1;24
17.05.2023;22:00;<7;18;59;10;2,0;24
17.05.2023;23:00;<7;15;56;10;1,9;42
17.05.2023;24:00;<7;18;40;10;1,2;68
18.05.2023;01:00;<7;13;32;11;0,7;45
18.05.2023;02:00;<7;15;24;11;1,0;46
18.05.2023;03:00;<7;15;18;11;0,7;
18.05.2023;04:00;<7;18;12;11;0,7;56
18.05.2023;05:00;<7;18;12;11;0,3;
18.05.2023;06:00;8;13;;11;1,3;51
18.05.2023;07:00;<7;<10;27;11;1,6;71
18.05.2023;08:00;<7;<10;36;11;2,2;86
18.05.2023;09:00;<7;<10;52;11;2,9;56
18.05.2023;10:00;<7;<10;66;11;4,3;44
18.05.2023;11:00;<7;<10;77;11;4,3;46
18.05.2023;12:00;<7;<10;79;11;3,5;48
18.05.2023;13:00;<7;<10;81;11;3,7;55
18.05.2023;14:00;<7;<10;83;11;4,0;45
18.05.2023;15:00;<7;<10;85;11;4,2;45
18.05.2023;16:00;;;87;11;4,6;41
18.05.2023;17:00;<7;<10;89;11;4,9;48
18.05.2023;18:00;<7;<10;91;11;4,5;42
18.05.2023;19:00;<7;<10;90;11;4,1;43
18.05.2023;20:00;<7;<10;86;10;3,8;31
18.05.2023;21:00;<7;<10;80;10;3,2;21
18.05.2023;22:00;<7;15;68;10;2,7;41
18.05.2023;23:00;<7;14;57;10;1,7;64
18.05.2023;24:00;<7;<10;51;11;2,0;52
19.05.2023;01:00;<7;<10;47;11;1,3;45
19.05.2023;02:00;<7;14;28;11;0,9;49
19.05.2023;03:00;<7;<10;29;11;0,9;39
19.05.2023;04:00;<7;12;17;11;0,2;
19.05.2023;05:00;<7;18;5;11;0,4;
19.05.2023;06:00;12;20;5;11;0,9;56
19.05.2023;07:00;<7;17;;11;1,4;68
19.05.2023;08:00;<7;<10;32;12;2,0;85
19.05.2023;09:00;<7;<10;51;12;3,0;79
19.05.2023;10:00;<7;<10;70;12;3,9;53
19.05.2023;11:00;<7;<10;80;12;4,8;43
19.05.2023;12:00;<7;<10;85;12;4,7;46
19.05.2023;13:00;<7;<10;90;12;5,0;52
19.05.2023;14:00;<7;<10;98;12;5,1;42
19.05.2023;15:00;<7;<10;101;12;5,6;46
19.05.2023;16:00;<7;<10;103;13;5,4;49
19.05.2023;17:00;;;105;12;5,3;51
19.05.2023;18:00;<7;<10;105;12;5,3;44
19.05.2023;19:00;<7;<10;100;12;4,6;47
19.05.2023;20:00;<7;<10;92;13;3,7;50
19.05.2023;21:00;<7;<10;82;12;2,8;47
19.05.2023;22:00;<7;15;66;12;1,9;61
19.05.2023;23:00;<7;14;55;12;1,0;75
19.05.2023;24:00;<7;11;43;12;0,5;
20.05.2023;01:00;<7;16;28;12;0,2;
20.05.2023;02:00;<7;14;27;12;0,7;46
20.05.2023;03:00;<7;<10;30;12;0,8;43
20.05.2023;04:00;<7;13;16;12;0,9;55
20.05.2023;05:00;<7;15;18;12;1,9;63
20.05.2023;06:00;<7;14;42;11;2,7;56
20.05.2023;07:00;<7;<10;52;11;3,4;50
20.05.2023;08:00;<7;15;48;11;5,0;56
20.05.2023;09:00;<7;11;51;11;4,9;53
20.05.2023;10:00;<7;12;50;11;5,2;52
20.05.2023;11:00;<7;<10;53;11;4,8;53
20.05.2023;12:00;<7;<10;62;11;5,1;55
20.05.2023;13:00;<7;<10;73;11;5,2;55
20.05.2023;14:00;<7;<10;78;11;5,2;62
20.05.2023;15:00;<7;<10;79;11;5,2;63
20.05.2023;16:00;<7;<10;81;11;5,2;54
20.05.2023;17:00;<7;<10;78;11;4,6;56
20.05.2023;18:00;;;79;11;4,3;52
20.05.2023;19:00;<7;<10;74;11;4,2;53
20.05.2023;20:00;<7;<10;70;11;3,3;51
20.05.2023;21:00;<7;<10;66;11;2,7;45
20.05.2023;22:00;<7;<10;61;11;2,2;36
20.05.2023;23:00;<7;<10;;12;2,3;35
20.05.2023;24:00;<7;<10;57;12;2,7;41
21.05.2023;01:00;<7;<10;47;12;1,0;
21.05.2023;02:00;<7;<10;32;12;1,0;
21.05.2023;03:00;<7;12;30;12;1,0;29
21.05.2023;04:00;<7;14;16;13;0,6;21
21.05.2023;05:00;<7;12;21;13;1,2;11
21.05.2023;06:00;<7;14;9;13;0,9;45
21.05.2023;07:00;<7;12;25;13;1,4;48
21.05.2023;08:00;<7;<10;38;13;2,5;47
21.05.2023;09:00;<7;<10;41;13;3,2;61
21.05.2023;10:00;<7;<10;45;13;3,5;68
21.05.2023;11:00;<7;<10;54;13;3,2;44
21.05.2023;12:00;<7;<10;60;13;3,3;65
21.05.2023;13:00;<7;<10;68;14;3,8;65
21.05.2023;14:00;<7;<10;74;14;3,8;48
21.05.2023;15:00;<7;<10;84;14;3,7;45
21.05.2023;16:00;<7;<10;92;15;4,2;46
21.05.2023;17:00;<7;<10;95;15;4,1;37
21.05.2023;18:00;<7;<10;95;16;4,0;30
21.05.2023;19:00;;;90;16;2,9;42
21.05.2023;20:00;<7;15;83;16;1,9;33
21.05.2023;21:00;<7;<10;95;17;4,4;76
21.05.2023;22:00;<7;<10;95;17;4,9;70
21.05.2023;23:00;<7;<10;97;17;2,8;25
21.05.2023;24:00;<7;<10;;17;1,1;53
22.05.2023;01:00;<7;<10;63;17;1,1;30
22.05.2023;02:00;<7;<10;37;17;0,2;
22.05.2023;03:00;<7;<10;29;17;0,4;
22.05.2023;04:00;<7;15;16;17;0,6;217
22.05.2023;05:00;<7;13;21;17;0,2;
22.05.2023;06:00;<7;25;10;16;0,6;
22.05.2023;07:00;9;24;10;16;0,2;
22.05.2023;08:00;13;25;15;17;0,4;
22.05.2023;09:00;13;24;18;17;1,1;180
22.05.2023;10:00;<7;21;40;17;2,0;267
22.05.2023;11:00;<7;19;62;17;2,7;285
22.05.2023;12:00;<7;22;80;17;3,1;304
22.05.2023;13:00;<7;15;103;18;3,3;309
22.05.2023;14:00;<7;10;110;18;4,2;287
22.05.2023;15:00;<7;14;104;19;3,7;280
22.05.2023;16:00;<7;12;115;19;3,8;275
22.05.2023;17:00;<7;<10;106;19;4,2;84
22.05.2023;18:00;<7;<10;97;19;2,9;92
22.05.2023;19:00;<7;12;88;19;3,1;281
22.05.2023;20:00;;;76;19;1,6;303
22.05.2023;21:00;<7;17;61;19;1,4;268
22.05.2023;22:00;<7;15;54;19;1,3;275
22.05.2023;23:00;<7;14;62;19;2,6;309
22.05.2023;24:00;<7;11;69;19;3,3;301
23.05.2023;01:00;<7;<10;;19;3,2;286
23.05.2023;02:00;<7;<10;82;19;2,8;268
23.05.2023;03:00;<7;<10;86;19;3,6;281
23.05.2023;04:00;<7;<10;83;19;2,1;276
23.05.2023;05:00;<7;<10;76;19;3,2;279
23.05.2023;06:00;<7;<10;76;19;3,6;295
23.05.2023;07:00;<7;13;71;19;3,6;294
23.05.2023;08:00;<7;<10;77;19;4,4;307
23.05.2023;09:00;<7;<10;78;18;4,2;312
23.05.2023;10:00;<7;<10;79;18;3,7;320
23.05.2023;11:00;<7;<10;67;17;4,3;317
23.05.2023;12:00;<7;<10;62;17;4,8;319
23.05.2023;13:00;<7;<10;71;16;3,1;323
23.05.2023;14:00;<7;<10;68;15;3,9;326
23.05.2023;15:00;<7;<10;79;14;3,5;351
23.05.2023;16:00;<7;<10;81;13;3,4;329
23.05.2023;17:00;<7;<10;83;13;3,8;337
23.05.2023;18:00;<7;<10;82;13;3,8;354
23.05.2023;19:00;<7;<10;79;13;3,4;335
23.05.2023;20:00;<7;<10;78;12;2,6;355
23.05.2023;21:00;;;71;12;2,3;1
23.05.2023;22:00;<7;<10;73;12;;
23.05.2023;23:00;<7;<10;70;12;2,3;3
23.05.2023;24:00;<7;<10;65;11;1,5;8
24.05.2023;01:00;<7;<10;48;11;0,8;
24.05.2023;02:00;<7;<10;;11;0,5;
24.05.2023;03:00;<7;11;21;11;0,7;
24.05.2023;04:00;<7;18;15;11;0,8;221
24.05.2023;05:00;7;23;11;11;0,8;
24.05.2023;06:00;17;25;10;11;1,0;214
24.05.2023;07:00;12;29;17;11;1,4;213
24.05.2023;08:00;<7;26;37;11;1,9;299
24.05.2023;09:00;<7;<10;65;12;3,1;322
24.05.2023;10:00;<7;<10;67;12;2,6;336
24.05.2023;11:00;<7;<10;72;12;2,7;6
24.05.2023;12:00;<7;<10;69;12;1,8;12
24.05.2023;13:00;<7;<10;68;12;1,7;355
24.05.2023;14:00;<7;<10;68;13;1,9;19
24.05.2023;15:00;<7;<10;67;13;1,6;41
24.05.2023;16:00;<7;<10;71;13;1,9;21
24.05.2023;17:00;<7;<10;70;13;1,9;22
24.05.2023;18:00;<7;<10;68;13;2,2;60
24.05.2023;19:00;<7;<10;62;13;1,7;103
24.05.2023;20:00;<7;<10;63;13;1,2;108
24.05.2023;21:00;<7;21;39;13;0,7;
24.05.2023;22:00;;;22;13;0,2;
24.05.2023;23:00;<7;23;9;14;0,4;
24.05.2023;24:00;<7;27;<4;14;0,5;
25.05.2023;01:00;<7;17;<4;14;0,5;
25.05.2023;02:00;<7;11;8;14;0,2;
25.05.2023;03:00;9;13;;14;0,2;
25.05.2023;04:00;8;11;<4;14;0,6;
25.05.2023;05:00;16;11;<4;14;0,6;
25.05.2023;06:00;19;13;<4;14;0,3;
25.05.2023;07:00;20;12;<4;14;0,5;
25.05.2023;08:00;19;14;<4;14;0,9;123
25.05.2023;09:00;<7;16;36;14;2,4;60
25.05.2023;10:00;<7;14;49;14;2,0;58
25.05.2023;11:00;<7;<10;61;14;2,6;10
25.05.2023;12:00;<7;<10;69;14;3,4;14
25.05.2023;13:00;<7;<10;69;14;3,2;46
25.05.2023;14:00;<7;<10;71;14;3,6;42
25.05.2023;15:00;<7;<10;70;14;3,6;29
25.05.2023;16:00;<7;<10;71;14;3,7;44
25.05.2023;17:00;<7;<10;78;14;3,8;59
25.05.2023;18:00;<7;<10;79;14;3,4;61
25.05.2023;19:00;<7;<10;77;14;2,8;72
25.05.2023;20:00;<7;<10;70;14;1,9;69
25.05.2023;21:00;<7;12;53;14;1,1;39
25.05.2023;22:00;<7;20;25;14;0,5;43
25.05.2023;23:00;;;24;14;1,7;45
25.05.2023;24:00;<7;<10;63;14;2,5;51
26.05.2023;01:00;<7;<10;57;14;2,0;59
26.05.2023;02:00;<7;<10;59;15;2,3;51
26.05.2023;03:00;<7;11;53;15;1,7;54
26.05.2023;04:00;<7;13;;15;1,4;38
26.05.2023;05:00;<7;16;43;15;1,8;23
26.05.2023;06:00;<7;18;40;16;2,2;22
26.05.2023;07:00;<7;22;41;16;2,8;35
26.05.2023;08:00;<7;14;50;16;3,0;51
26.05.2023;09:00;<7;13;53;16;3,5;48
26.05.2023;10:00;<7;11;54;17;3,5;59
26.05.2023;11:00;<7;11;57;17;3,3;52
26.05.2023;12:00;<7;<10;66;17;3,6;50
26.05.2023;13:00;<7;<10;75;18;3,5;43
26.05.2023;14:00;<7;<10;81;18;4,2;50
26.05.2023;15:00;<7;<10;87;18;4,0;36
26.05.2023;16:00;<7;<10;92;18;4,5;44
26.05.2023;17:00;<7;<10;94;18;4,6;48
26.05.2023;18:00;<7;<10;89;19;4,4;63
26.05.2023;19:00;<7;<10;89;19;4,4;62
26.05.2023;20:00;<7;<10;91;19;3,2;53
26.05.2023;21:00;<7;<10;85;19;2,8;42
26.05.2023;22:00;<7;18;64;19;2,1;60
26.05.2023;23:00;<7;<10;68;19;2,6;51
26.05.2023;24:00;;;50;19;1,4;63
27.05.2023;01:00;<7;<10;58;18;1,9;31
27.05.2023;02:00;<7;<10;55;18;1,6;42
27.05.2023;03:00;<7;<10;49;18;1,8;39